Time,TemperatureF,DewpointF,PressureIn,WindDirection,WindDirectionDegrees,WindSpeedMPH,WindSpeedGustMPH,Humidity,HourlyPrecipIn,Conditions,Clouds,dailyrainin,SolarRadiationWatts/m^2,SoftwareType,DateUTC
2013-03-30 00:02:00,40.0,26.0,-100.00,WSW,237,5.0,6.0,56,0.00,,,0.00,0.000000,,2013-03-30 06:02:00,
2013-03-30 00:11:00,40.0,26.0,-100.00,WSW,237,5.0,6.0,56,0.00,,,0.00,0.000000,,2013-03-30 06:11:00,
2013-03-30 00:22:00,40.0,26.0,-100.00,WSW,237,5.0,6.0,56,0.00,,,0.00,0.000000,,2013-03-30 06:22:00,
2013-03-30 00:30:00,37.0,24.0,-100.00,WSW,246,6.0,9.0,58,0.00,,,0.00,0.000000,,2013-03-30 06:30:00,
2013-03-30 00:52:00,37.0,24.0,-100.00,WSW,246,6.0,9.0,58,0.00,,,0.00,0.000000,,2013-03-30 06:52:00,
2013-03-30 01:02:00,37.0,24.0,-100.00,WSW,246,6.0,9.0,58,0.00,,,0.00,0.000000,,2013-03-30 07:02:00,
2013-03-30 01:12:00,37.0,24.0,-100.00,WSW,246,6.0,9.0,58,0.00,,,0.00,0.000000,,2013-03-30 07:12:00,
2013-03-30 01:22:00,37.0,24.0,-100.00,WSW,246,6.0,9.0,58,0.00,,,0.00,0.000000,,2013-03-30 07:22:00,
2013-03-30 01:30:00,32.0,23.0,-100.00,West,262,3.0,8.0,70,0.00,,,0.00,0.000000,,2013-03-30 07:30:00,
2013-03-30 01:52:00,32.0,23.0,-100.00,West,262,3.0,8.0,70,0.00,,,0.00,0.000000,,2013-03-30 07:52:00,
2013-03-30 02:02:00,32.0,23.0,-100.00,West,262,3.0,8.0,70,0.00,,,0.00,0.000000,,2013-03-30 08:02:00,
2013-03-30 02:12:00,32.0,23.0,-100.00,West,262,3.0,8.0,70,0.00,,,0.00,0.000000,,2013-03-30 08:12:00,
2013-03-30 02:21:00,32.0,23.0,-100.00,West,262,3.0,8.0,70,0.00,,,0.00,0.000000,,2013-03-30 08:21:00,
2013-03-30 02:30:00,29.0,21.0,-100.00,West,259,3.0,6.0,73,0.00,,,0.00,0.000000,,2013-03-30 08:30:00,
2013-03-30 02:53:00,29.0,21.0,-100.00,West,259,3.0,6.0,73,0.00,,,0.00,0.000000,,2013-03-30 08:53:00,
2013-03-30 03:02:00,29.0,21.0,-100.00,West,259,3.0,6.0,73,0.00,,,0.00,0.000000,,2013-03-30 09:02:00,
2013-03-30 03:12:00,29.0,21.0,-100.00,West,259,3.0,6.0,73,0.00,,,0.00,0.000000,,2013-03-30 09:12:00,
2013-03-30 03:22:00,29.0,21.0,-100.00,West,259,3.0,6.0,73,0.00,,,0.00,0.000000,,2013-03-30 09:22:00,
2013-03-30 03:53:00,31.0,23.0,-100.00,West,279,3.0,9.0,73,0.00,,,0.00,0.000000,,2013-03-30 09:53:00,
2013-03-30 04:02:00,31.0,23.0,-100.00,West,279,3.0,9.0,73,0.00,,,0.00,0.000000,,2013-03-30 10:02:00,
2013-03-30 04:12:00,31.0,23.0,-100.00,West,279,3.0,9.0,73,0.00,,,0.00,0.000000,,2013-03-30 10:12:00,
2013-03-30 04:23:00,31.0,23.0,-100.00,West,279,3.0,9.0,73,0.00,,,0.00,0.000000,,2013-03-30 10:23:00,
2013-03-30 04:52:00,30.0,23.0,-100.00,WSW,248,5.0,7.0,76,-99.99,,,0.00,0.000000,,2013-03-30 10:52:00,
2013-03-30 05:03:00,30.0,23.0,-100.00,WSW,248,5.0,7.0,76,-99.99,,,0.00,0.000000,,2013-03-30 11:03:00,
2013-03-30 05:12:00,30.0,23.0,-100.00,WSW,248,5.0,7.0,76,-99.99,,,0.00,0.000000,,2013-03-30 11:12:00,
2013-03-30 05:22:00,30.0,23.0,-100.00,WSW,248,5.0,7.0,76,-99.99,,,0.00,0.000000,,2013-03-30 11:22:00,
2013-03-30 05:53:00,28.0,23.0,-100.00,NE,40,2.0,7.0,82,-99.99,,,-99.99,0.000000,,2013-03-30 11:53:00,
2013-03-30 06:02:00,28.0,23.0,-100.00,NE,40,2.0,7.0,82,-99.99,,,-99.99,0.000000,,2013-03-30 12:02:00,
2013-03-30 06:12:00,28.0,23.0,-100.00,NE,40,2.0,7.0,82,-99.99,,,-99.99,0.000000,,2013-03-30 12:12:00,
2013-03-30 06:22:00,28.0,23.0,-100.00,NE,40,2.0,7.0,82,-99.99,,,-99.99,0.000000,,2013-03-30 12:22:00,
2013-03-30 06:30:00,26.0,22.0,-100.00,NW,305,1.0,4.0,84,-99.99,,,0.00,0.000000,,2013-03-30 12:30:00,
2013-03-30 06:53:00,26.0,22.0,-100.00,NW,305,1.0,4.0,84,-99.99,,,0.00,0.000000,,2013-03-30 12:53:00,
2013-03-30 07:02:00,26.0,22.0,-100.00,NW,305,1.0,4.0,84,-99.99,,,0.00,0.000000,,2013-03-30 13:02:00,
2013-03-30 07:12:00,26.0,22.0,-100.00,NW,305,1.0,4.0,84,-99.99,,,0.00,0.000000,,2013-03-30 13:12:00,
2013-03-30 07:22:00,26.0,22.0,-100.00,NW,305,1.0,4.0,84,-99.99,,,0.00,0.000000,,2013-03-30 13:22:00,
2013-03-30 07:30:00,28.0,24.0,-100.00,WSW,252,4.0,6.0,86,0.00,,,0.00,5.000000,,2013-03-30 13:30:00,
2013-03-30 07:52:00,28.0,24.0,-100.00,WSW,252,4.0,6.0,86,0.00,,,0.00,5.000000,,2013-03-30 13:52:00,
2013-03-30 08:02:00,28.0,24.0,-100.00,WSW,252,4.0,6.0,86,0.00,,,0.00,5.000000,,2013-03-30 14:02:00,
2013-03-30 08:11:00,28.0,24.0,-100.00,WSW,252,4.0,6.0,86,0.00,,,0.00,5.000000,,2013-03-30 14:11:00,
2013-03-30 08:22:00,28.0,24.0,-100.00,WSW,252,4.0,6.0,86,0.00,,,0.00,5.000000,,2013-03-30 14:22:00,
2013-03-30 08:30:00,34.0,28.0,-100.00,ENE,76,2.0,7.0,79,0.00,,,0.00,88.000000,,2013-03-30 14:30:00,
2013-03-30 08:52:00,34.0,28.0,-100.00,ENE,76,2.0,7.0,79,0.00,,,0.00,88.000000,,2013-03-30 14:52:00,
2013-03-30 09:02:00,34.0,28.0,-100.00,ENE,76,2.0,7.0,79,0.00,,,0.00,88.000000,,2013-03-30 15:02:00,
2013-03-30 09:12:00,34.0,28.0,-100.00,ENE,76,2.0,7.0,79,0.00,,,0.00,88.000000,,2013-03-30 15:12:00,
2013-03-30 09:22:00,34.0,28.0,-100.00,ENE,76,2.0,7.0,79,0.00,,,0.00,88.000000,,2013-03-30 15:22:00,
2013-03-30 09:30:00,42.0,31.0,-100.00,East,95,3.0,4.0,64,0.00,,,0.00,289.000000,,2013-03-30 15:30:00,
2013-03-30 09:53:00,42.0,31.0,-100.00,East,95,3.0,4.0,64,0.00,,,0.00,289.000000,,2013-03-30 15:53:00,
2013-03-30 10:03:00,42.0,31.0,-100.00,East,95,3.0,4.0,64,0.00,,,0.00,289.000000,,2013-03-30 16:03:00,
2013-03-30 10:12:00,42.0,31.0,-100.00,East,95,3.0,4.0,64,0.00,,,0.00,289.000000,,2013-03-30 16:12:00,
2013-03-30 10:22:00,42.0,31.0,-100.00,East,95,3.0,4.0,64,0.00,,,0.00,289.000000,,2013-03-30 16:22:00,
2013-03-30 10:30:00,52.0,35.0,-100.00,ENE,76,2.0,6.0,52,0.00,,,0.00,521.000000,,2013-03-30 16:30:00,
2013-03-30 10:52:00,52.0,35.0,-100.00,ENE,76,2.0,6.0,52,0.00,,,0.00,521.000000,,2013-03-30 16:52:00,
2013-03-30 11:02:00,52.0,35.0,-100.00,ENE,76,2.0,6.0,52,0.00,,,0.00,521.000000,,2013-03-30 17:02:00,
2013-03-30 11:13:00,52.0,35.0,-100.00,ENE,76,2.0,6.0,52,0.00,,,0.00,521.000000,,2013-03-30 17:13:00,
2013-03-30 11:22:00,52.0,35.0,-100.00,ENE,76,2.0,6.0,52,0.00,,,0.00,521.000000,,2013-03-30 17:22:00,
2013-03-30 11:30:00,55.0,29.0,-100.00,WSW,242,6.0,9.0,37,0.00,,,0.00,621.000000,,2013-03-30 17:30:00,
2013-03-30 11:52:00,55.0,29.0,-100.00,WSW,242,6.0,9.0,37,0.00,,,0.00,621.000000,,2013-03-30 17:52:00,
2013-03-30 12:02:00,55.0,29.0,-100.00,WSW,242,6.0,9.0,37,0.00,,,0.00,621.000000,,2013-03-30 18:02:00,
2013-03-30 12:12:00,55.0,29.0,-100.00,WSW,242,6.0,9.0,37,0.00,,,0.00,621.000000,,2013-03-30 18:12:00,
2013-03-30 12:22:00,55.0,29.0,-100.00,WSW,242,6.0,9.0,37,0.00,,,0.00,621.000000,,2013-03-30 18:22:00,
2013-03-30 12:30:00,59.0,28.0,-100.00,NW,313,4.0,15.0,31,0.00,,,0.00,713.000000,,2013-03-30 18:30:00,
2013-03-30 12:53:00,59.0,28.0,-100.00,NW,313,4.0,15.0,31,0.00,,,0.00,713.000000,,2013-03-30 18:53:00,
2013-03-30 13:02:00,59.0,28.0,-100.00,NW,313,4.0,15.0,31,0.00,,,0.00,713.000000,,2013-03-30 19:02:00,
2013-03-30 13:12:00,59.0,28.0,-100.00,NW,313,4.0,15.0,31,0.00,,,0.00,713.000000,,2013-03-30 19:12:00,
2013-03-30 13:22:00,59.0,28.0,-100.00,NW,313,4.0,15.0,31,0.00,,,0.00,713.000000,,2013-03-30 19:22:00,
2013-03-30 13:30:00,60.0,23.0,-100.00,West,274,10.0,20.0,24,0.00,,,0.00,881.000000,,2013-03-30 19:30:00,
2013-03-30 13:53:00,60.0,23.0,-100.00,West,274,10.0,20.0,24,0.00,,,0.00,881.000000,,2013-03-30 19:53:00,
2013-03-30 14:02:00,60.0,23.0,-100.00,West,274,10.0,20.0,24,0.00,,,0.00,881.000000,,2013-03-30 20:02:00,
2013-03-30 14:12:00,60.0,23.0,-100.00,West,274,10.0,20.0,24,0.00,,,0.00,881.000000,,2013-03-30 20:12:00,
2013-03-30 14:21:00,60.0,23.0,-100.00,West,274,10.0,20.0,24,0.00,,,0.00,881.000000,,2013-03-30 20:21:00,
2013-03-30 14:30:00,60.0,23.0,-100.00,West,264,4.0,15.0,24,0.00,,,0.00,645.000000,,2013-03-30 20:30:00,
2013-03-30 14:53:00,60.0,23.0,-100.00,West,264,4.0,15.0,24,0.00,,,0.00,645.000000,,2013-03-30 20:53:00,
2013-03-30 15:02:00,60.0,23.0,-100.00,West,264,4.0,15.0,24,0.00,,,0.00,645.000000,,2013-03-30 21:02:00,
2013-03-30 15:12:00,60.0,23.0,-100.00,West,264,4.0,15.0,24,0.00,,,0.00,645.000000,,2013-03-30 21:12:00,
2013-03-30 15:22:00,60.0,23.0,-100.00,West,264,4.0,15.0,24,0.00,,,0.00,645.000000,,2013-03-30 21:22:00,
2013-03-30 15:30:00,63.0,26.0,-100.00,SSW,196,8.0,15.0,24,0.00,,,0.00,752.000000,,2013-03-30 21:30:00,
2013-03-30 15:53:00,63.0,26.0,-100.00,SSW,196,8.0,15.0,24,0.00,,,0.00,752.000000,,2013-03-30 21:53:00,
2013-03-30 16:02:00,63.0,26.0,-100.00,SSW,196,8.0,15.0,24,0.00,,,0.00,752.000000,,2013-03-30 22:02:00,
2013-03-30 16:12:00,63.0,26.0,-100.00,SSW,196,8.0,15.0,24,0.00,,,0.00,752.000000,,2013-03-30 22:12:00,
2013-03-30 16:23:00,63.0,26.0,-100.00,SSW,196,8.0,15.0,24,0.00,,,0.00,752.000000,,2013-03-30 22:23:00,
2013-03-30 16:30:00,62.0,26.0,-100.00,WSW,250,7.0,18.0,25,0.00,,,0.00,746.000000,,2013-03-30 22:30:00,
2013-03-30 16:53:00,62.0,26.0,-100.00,WSW,250,7.0,18.0,25,0.00,,,0.00,746.000000,,2013-03-30 22:53:00,
2013-03-30 17:02:00,62.0,26.0,-100.00,WSW,250,7.0,18.0,25,0.00,,,0.00,746.000000,,2013-03-30 23:02:00,
2013-03-30 17:12:00,62.0,26.0,-100.00,WSW,250,7.0,18.0,25,0.00,,,0.00,746.000000,,2013-03-30 23:12:00,
2013-03-30 17:22:00,62.0,26.0,-100.00,WSW,250,7.0,18.0,25,0.00,,,0.00,746.000000,,2013-03-30 23:22:00,
2013-03-30 17:30:00,61.0,24.0,-100.00,WSW,248,9.0,17.0,24,0.00,,,0.00,607.000000,,2013-03-30 23:30:00,
2013-03-30 17:53:00,61.0,24.0,-100.00,WSW,248,9.0,17.0,24,0.00,,,0.00,607.000000,,2013-03-30 23:53:00,
2013-03-30 18:02:00,61.0,24.0,-100.00,WSW,248,9.0,17.0,24,0.00,,,0.00,607.000000,,2013-03-31 00:02:00,
2013-03-30 18:12:00,61.0,24.0,-100.00,WSW,248,9.0,17.0,24,0.00,,,0.00,607.000000,,2013-03-31 00:12:00,
2013-03-30 18:22:00,61.0,24.0,-100.00,WSW,248,9.0,17.0,24,0.00,,,0.00,607.000000,,2013-03-31 00:22:00,
2013-03-30 18:30:00,60.0,22.0,-100.00,WSW,251,12.0,17.0,23,0.00,,,0.00,419.000000,,2013-03-31 00:30:00,
2013-03-30 18:53:00,60.0,22.0,-100.00,WSW,251,12.0,17.0,23,0.00,,,0.00,419.000000,,2013-03-31 00:53:00,
2013-03-30 19:02:00,60.0,22.0,-100.00,WSW,251,12.0,17.0,23,0.00,,,0.00,419.000000,,2013-03-31 01:02:00,
2013-03-30 19:12:00,60.0,22.0,-100.00,WSW,251,12.0,17.0,23,0.00,,,0.00,419.000000,,2013-03-31 01:12:00,
2013-03-30 19:22:00,60.0,22.0,-100.00,WSW,251,12.0,17.0,23,0.00,,,0.00,419.000000,,2013-03-31 01:22:00,
2013-03-30 19:30:00,57.0,22.0,-100.00,West,261,9.0,17.0,25,0.00,,,0.00,154.000000,,2013-03-31 01:30:00,
2013-03-30 19:53:00,57.0,22.0,-100.00,West,261,9.0,17.0,25,0.00,,,0.00,154.000000,,2013-03-31 01:53:00,
2013-03-30 20:02:00,57.0,22.0,-100.00,West,261,9.0,17.0,25,0.00,,,0.00,154.000000,,2013-03-31 02:02:00,
2013-03-30 20:12:00,57.0,22.0,-100.00,West,261,9.0,17.0,25,0.00,,,0.00,154.000000,,2013-03-31 02:12:00,
2013-03-30 20:22:00,57.0,22.0,-100.00,West,261,9.0,17.0,25,0.00,,,0.00,154.000000,,2013-03-31 02:22:00,
2013-03-30 20:30:00,53.0,22.0,-100.00,WSW,253,7.0,12.0,30,0.00,,,-99.99,7.000000,,2013-03-31 02:30:00,
2013-03-30 20:52:00,53.0,22.0,-100.00,WSW,253,7.0,12.0,30,0.00,,,-99.99,7.000000,,2013-03-31 02:52:00,
2013-03-30 21:02:00,53.0,22.0,-100.00,WSW,253,7.0,12.0,30,0.00,,,-99.99,7.000000,,2013-03-31 03:02:00,
2013-03-30 21:12:00,53.0,22.0,-100.00,WSW,253,7.0,12.0,30,0.00,,,-99.99,7.000000,,2013-03-31 03:12:00,
2013-03-30 21:22:00,53.0,22.0,-100.00,WSW,253,7.0,12.0,30,0.00,,,-99.99,7.000000,,2013-03-31 03:22:00,
2013-03-30 21:30:00,49.0,23.0,-100.00,WSW,248,5.0,10.0,36,0.00,,,0.00,0.000000,,2013-03-31 03:30:00,
2013-03-30 21:54:00,49.0,23.0,-100.00,WSW,248,5.0,10.0,36,0.00,,,0.00,0.000000,,2013-03-31 03:54:00,
2013-03-30 22:02:00,49.0,-99.9,-100.00,WSW,248,5.0,10.0,36,0.00,,,0.00,0.000000,,2013-03-31 04:02:00,
2013-03-30 22:12:00,49.0,23.0,-100.00,WSW,248,5.0,10.0,36,0.00,,,0.00,0.000000,,2013-03-31 04:12:00,
2013-03-30 22:22:00,49.0,23.0,-100.00,WSW,248,5.0,10.0,36,0.00,,,0.00,0.000000,,2013-03-31 04:22:00,
2013-03-30 22:30:00,44.0,24.0,-100.00,West,280,5.0,9.0,45,0.00,,,0.00,0.000000,,2013-03-31 04:30:00,
2013-03-30 22:52:00,44.0,24.0,-100.00,West,280,5.0,9.0,45,0.00,,,0.00,0.000000,,2013-03-31 04:52:00,
2013-03-30 23:02:00,44.0,24.0,-100.00,West,280,5.0,9.0,45,0.00,,,0.00,0.000000,,2013-03-31 05:02:00,
2013-03-30 23:12:00,44.0,24.0,-100.00,West,280,5.0,9.0,45,0.00,,,0.00,0.000000,,2013-03-31 05:12:00,
2013-03-30 23:22:00,44.0,24.0,-100.00,West,280,5.0,9.0,45,0.00,,,0.00,0.000000,,2013-03-31 05:22:00,
2013-03-30 23:30:00,45.0,25.0,-100.00,West,277,6.0,8.0,46,0.00,,,0.00,0.000000,,2013-03-31 05:30:00,
2013-03-30 23:53:00,45.0,25.0,-100.00,West,277,6.0,8.0,46,0.00,,,0.00,0.000000,,2013-03-31 05:53:00,